INTELSAT 33E DEB, 64395

Orbit data source: Space-Track

INTELSAT 33E DEB, 64395 is space debris in GEO originally from a launch on Wed, 24 Aug 2016 UTC launched from the French Guiana (FRGUI). Debris objects in space refer to the collection of defunct objects orbiting the Earth. Examples of debris include non-operational satellites, rocket bodies, and fragments generated from explosions, collisions, or faulty payload assembly.

Not visible in the next 10 days
Identifier
64395, 2016-053Z
Orbit
GEO
Country
Flag of UnknownUnknown / ITSO
Related business
Manufacturer
Boeing/ES
Mission
Spacecraft
Bus & Motor
Unknown
Mass
Unknown
Launch date (UTC)
2016-08-24 (9 years ago)
Launch vehicle
Unknown
Launch site
French Guiana (FRGUI)
Object type
Payload
Rocket body
Debris
Shape & HBR
Unknown shape, 1.1 m
Radar Cross Section
RCS unknown

Expand to show TLE details & history
Last TLE update: 13 hours ago

TLE from 13 hours ago
0 INTELSAT 33E DEB
1 64395U 16053Z   25340.79328994 -.00000327  00000-0  00000-0 0  9990
2 64395   1.9387 121.1811 0099223 147.2656 212.8509  0.99827155  4005
Epoch: 2025-12-06T19:02Z
TLE epoch observation values (Epoch: 2025-12-06T19:02:20.250Z)
Latitude
-0°
Longitude
119.27418°
Altitude
36,266.16 km
Speed
3.045 km/s
True Right ascension
08h 02m 41s
True Declination
0° 00' 00"
Sunlit
Object was in daylight at epoch
Visualization orbit readout
Latitude
Unknown
Longitude
Unknown
Altitude
Unknown
Speed
Unknown
Apparent Right ascension
Unknown
Apparent Declination
Unknown
Sunlit
N/A
Visualization observer readout
Local Sidereal Time
06:29:06
Azimuth
Unknown
Elevation
Unknown
Doppler factor
Unknown
Orbital elements
Apogee altitude
36,332.392 km
Perigee altitude
35,493.146 km
Semi-major axis
42,290.906 km
Eccentricity
0.00992
Inclination
1.9387°
RAAN
121.1811°
Arg. of periapsis
147.2656°
True anomaly
212.2405°
Mean anomaly
212.8509°
Eccentric anomaly
212.54506°
Mean motion
0.24956 °/min
Orbital period
1,442.55 mins
BSTAR
0
Loading maneuver chart data...
Computing Atmospheric mass density...
Loading historical data...
Loading historical data...
Loading historical data...
Loading historical data...
Loading historical data...
Loading historical data...
Loading historical data...

Documentation

Showing up to 5 results
|